Escatawpa, MS

2:03 PM CDT on August 27, 2016 (GMT -0500)
Lott International

Weather History for KPQL - December, 2012

Change the Weather History Date:

Monday, December 3, 2012

  Actual Average Record
Temperature  
Mean Temperature 62 °F -  
Max Temperature 75 °F 63 °F 80 °F (1978)
Min Temperature 48 °F 48 °F 30 °F (1988)
Degree Days  
Heating Degree Days 4    
Growing Degree Days 12 (Base 50)    
Moisture  
Dew Point 57 °F    
Average Humidity 89    
Maximum Humidity 100    
Minimum Humidity 65    
Precipitation  
Precipitation 0.00 in - - ()
Sea Level Pressure  
Sea Level Pressure 30.22 in    
Wind  
Wind Speed 3 mph (SE)    
Max Wind Speed 16 mph    
Max Gust Speed 21 mph    
Visibility 4 miles    
Events Fog    
Averages and records for this station are not official NWS values.
T = Trace of Precipitation, MM = Missing Value Source: NWS Daily Summary

Daily Weather History Graph

Daily Weather History Graph

Search for Another Location

Airport or City:

Trip Planner

Search our weather history database for the weather conditions in past years. The results will help you decide how hot, cold, wet, or windy it might be!

Date:

Astronomy

Dec. 03, 2012 Rise Set
Actual Time 6:35 AM CST 4:52 PM CST
Civil Twilight 6:09 AM CST 5:19 PM CST
Nautical Twilight 5:39 AM CST 5:48 PM CST
Astronomical Twilight 5:10 AM CST 6:18 PM CST
Moon 9:28 PM CST (12/3) 10:07 AM CST (12/3)
Length of Visible Light 11h 09m
Length of Day
10h 17m
Waning Gibbous, 78% of the Moon is Illuminated
Dec 3
Waning Gibbous
Dec 6
Last Quarter
Dec 13
New
Dec 19
First Quarter
Dec 28
Full

Hourly Weather History & Observations

Time (CST) Temp. Dew Point Humidity Pressure Visibility Wind Dir Wind Speed Gust Speed Precip Events Conditions
12:53 AM 50.0 °F 48.9 °F 96% 30.22 in 0.2 mi Calm Calm - N/A Fog Fog
1:53 AM 50.0 °F 48.9 °F 96% 30.22 in 0.2 mi Calm Calm - N/A Fog Fog
2:53 AM 48.9 °F 48.0 °F 97% 30.22 in 0.2 mi Calm Calm - N/A Fog Fog
3:10 AM 48.2 °F 48.2 °F 100% 30.22 in 0.5 mi Calm Calm - N/A Fog Fog
3:23 AM 50.0 °F 48.2 °F 94% 30.22 in 0.2 mi Calm Calm - N/A Fog Fog
3:53 AM 48.9 °F 48.0 °F 97% 30.22 in 0.2 mi Calm Calm - N/A Fog Fog
4:53 AM 48.9 °F 48.0 °F 97% 30.22 in 0.2 mi Calm Calm - N/A Fog Fog
5:53 AM 48.0 °F 48.0 °F 100% 30.23 in 0.2 mi Calm Calm - N/A Fog Fog
6:53 AM 48.9 °F 48.0 °F 97% 30.25 in 0.2 mi Calm Calm - N/A Fog Fog
7:35 AM 53.6 °F 53.6 °F 100% 30.25 in 1.0 mi Calm Calm - N/A   Mist
7:39 AM 55.4 °F 55.4 °F 100% 30.25 in 2.0 mi Calm Calm - N/A   Scattered Clouds
7:53 AM 57.0 °F 57.0 °F 100% 30.26 in 5.0 mi Calm Calm - N/A   Partly Cloudy
10:53 AM 75.0 °F 64.0 °F 69% 30.25 in 10.0 mi SSE 11.5 mph 19.6 mph N/A   Overcast
11:11 AM 73.4 °F 62.6 °F 69% 30.24 in 10.0 mi SE 12.7 mph 19.6 mph N/A   Scattered Clouds
11:19 AM 73.4 °F 62.6 °F 69% 30.24 in 10.0 mi ESE 11.5 mph - N/A   Mostly Cloudy
11:53 AM 75.0 °F 63.0 °F 66% 30.23 in 10.0 mi SE 15.0 mph 20.7 mph N/A   Mostly Cloudy
12:27 PM 75.2 °F 62.6 °F 65% 30.21 in 10.0 mi SSE 15.0 mph - N/A   Mostly Cloudy
12:35 PM 75.2 °F 62.6 °F 65% 30.21 in 10.0 mi SSE 16.1 mph - N/A   Mostly Cloudy
1:53 PM 73.0 °F 62.1 °F 68% 30.19 in 10.0 mi SSE 15.0 mph - N/A   Overcast
2:53 PM 73.9 °F 62.1 °F 66% 30.19 in 10.0 mi SSE 15.0 mph 20.7 mph N/A   Clear
3:53 PM 73.0 °F 62.1 °F 68% 30.19 in 10.0 mi SE 8.1 mph - N/A   Clear
4:53 PM 68.0 °F 63.0 °F 84% 30.19 in 10.0 mi ESE 4.6 mph - N/A   Clear
5:53 PM 66.0 °F 63.0 °F 90% 30.20 in 10.0 mi ESE 4.6 mph - N/A   Clear
6:53 PM 64.9 °F 63.0 °F 93% 30.21 in 10.0 mi ESE 3.5 mph - N/A   Clear
7:49 PM 62.6 °F 60.8 °F 94% 30.20 in 1.8 mi Calm Calm - N/A   Partly Cloudy
7:53 PM 62.1 °F 61.0 °F 96% 30.21 in 0.5 mi Calm Calm - N/A Fog Fog
8:07 PM 59.0 °F 59.0 °F 100% 30.21 in 0.2 mi Calm Calm - N/A Fog Fog
8:53 PM 57.0 °F 57.0 °F 100% 30.21 in 0.2 mi Calm Calm - N/A Fog Fog
9:34 PM 57.2 °F 55.4 °F 94% 30.21 in 0.5 mi Calm Calm - N/A Fog Fog
9:45 PM 55.4 °F 55.4 °F 100% 30.21 in 0.2 mi Calm Calm - N/A Fog Fog
9:53 PM 57.9 °F 55.9 °F 93% 30.21 in 0.2 mi Calm Calm - N/A Fog Fog
10:03 PM 57.2 °F 57.2 °F 100% 30.21 in 0.2 mi Calm Calm - N/A Fog Fog
10:11 PM 59.0 °F 57.2 °F 94% 30.21 in 0.2 mi Calm Calm - N/A Fog Fog
10:53 PM 54.0 °F 54.0 °F 100% 30.21 in 0.2 mi Calm Calm - N/A Fog Fog
11:53 PM 55.9 °F 55.0 °F 97% 30.21 in 0.2 mi Calm Calm - N/A Fog Fog